Hourly Weather Pinsa

Today, 2 July, Thursday

Time Temperature Precipitation Wind Pressure Humidity
00:00 +36°C° 0 mm 3 mps 733 mmHg 41%
01:00 +35°C° 0 mm 4 mps 733 mmHg 43%
02:00 +35°C° 0 mm 4 mps 732 mmHg 46%
03:00 +34°C° 0 mm 4 mps 732 mmHg 48%
04:00 +34°C° 0 mm 4 mps 732 mmHg 51%
05:00 +33°C° 0 mm 4 mps 732 mmHg 54%
06:00 +33°C° 0 mm 4 mps 733 mmHg 57%
07:00 +34°C° 0 mm 4 mps 733 mmHg 54%
08:00 +35°C° 0 mm 5 mps 733 mmHg 50%
09:00 +36°C° 0 mm 5 mps 734 mmHg 47%
10:00 +37°C° 0 mm 4 mps 734 mmHg 43%
11:00 +38°C° 0 mm 3 mps 733 mmHg 38%
12:00 +39°C° 0 mm 2 mps 733 mmHg 34%
13:00 +40°C° 0 mm 2 mps 733 mmHg 31%
14:00 +40°C° 0 mm 1 mps 732 mmHg 28%
15:00 +41°C° 0 mm 1 mps 731 mmHg 26%
16:00 +41°C° 0.1 mm 1 mps 731 mmHg 26%
17:00 +41°C° 0.1 mm 1 mps 731 mmHg 26%
18:00 +40°C° 0.1 mm 2 mps 731 mmHg 27%
19:00 +40°C° 0.2 mm 2 mps 731 mmHg 28%
20:00 +39°C° 0.2 mm 2 mps 732 mmHg 30%
21:00 +38°C° 0.2 mm 3 mps 732 mmHg 32%
22:00 +37°C° 0.1 mm 5 mps 732 mmHg 35%
23:00 +36°C° 0.1 mm 6 mps 732 mmHg 39%

Tomorrow, 3 July, Friday

Time Temperature Precipitation Wind Pressure Humidity
00:00 +37°C° 0.1 mm 8 mps 732 mmHg 42%
01:00 +35°C° 0 mm 8 mps 732 mmHg 45%
02:00 +34°C° 0 mm 8 mps 731 mmHg 47%
03:00 +33°C° 0 mm 7 mps 731 mmHg 50%
04:00 +33°C° 0 mm 6 mps 731 mmHg 51%
05:00 +33°C° 0 mm 6 mps 731 mmHg 52%
06:00 +32°C° 0 mm 5 mps 732 mmHg 53%
07:00 +33°C° 0 mm 6 mps 732 mmHg 49%
08:00 +35°C° 0 mm 6 mps 732 mmHg 46%
09:00 +36°C° 0 mm 6 mps 733 mmHg 42%
10:00 +38°C° 0 mm 6 mps 733 mmHg 38%
11:00 +40°C° 0 mm 6 mps 732 mmHg 35%
12:00 +41°C° 0 mm 6 mps 732 mmHg 31%
13:00 +42°C° 0 mm 5 mps 732 mmHg 29%
14:00 +42°C° 0 mm 5 mps 731 mmHg 27%
15:00 +43°C° 0 mm 4 mps 730 mmHg 25%
16:00 +43°C° 0 mm 3 mps 730 mmHg 24%
17:00 +43°C° 0 mm 3 mps 730 mmHg 23%
18:00 +42°C° 0 mm 2 mps 730 mmHg 23%
19:00 +42°C° 0.1 mm 3 mps 730 mmHg 25%
20:00 +40°C° 0.1 mm 3 mps 731 mmHg 26%
21:00 +40°C° 0.1 mm 4 mps 731 mmHg 28%
22:00 +39°C° 0 mm 5 mps 731 mmHg 32%
23:00 +38°C° 0 mm 6 mps 731 mmHg 35%

Day after tomorrow, 4 July, Saturday

Time Temperature Precipitation Wind Pressure Humidity
00:00 +36°C° 0 mm 7 mps 731 mmHg 39%
01:00 +35°C° 0 mm 7 mps 731 mmHg 44%
02:00 +34°C° 0 mm 8 mps 730 mmHg 49%
03:00 +33°C° 0 mm 8 mps 730 mmHg 54%
04:00 +33°C° 0 mm 8 mps 730 mmHg 55%
05:00 +33°C° 0 mm 7 mps 731 mmHg 56%
06:00 +32°C° 0 mm 7 mps 731 mmHg 58%
07:00 +33°C° 0 mm 7 mps 731 mmHg 55%
08:00 +34°C° 0 mm 8 mps 732 mmHg 53%
09:00 +35°C° 0 mm 8 mps 732 mmHg 51%
10:00 +37°C° 0 mm 8 mps 732 mmHg 45%
11:00 +39°C° 0 mm 8 mps 732 mmHg 40%
12:00 +41°C° 0 mm 7 mps 732 mmHg 35%
13:00 +41°C° 0 mm 7 mps 731 mmHg 33%
14:00 +42°C° 0 mm 6 mps 731 mmHg 30%
15:00 +44°C° 0 mm 6 mps 730 mmHg 28%
16:00 +42°C° 0 mm 6 mps 730 mmHg 29%
17:00 +42°C° 0 mm 6 mps 730 mmHg 31%
18:00 +41°C° 0 mm 6 mps 729 mmHg 32%
19:00 +35°C° 10 mm 9 mps 730 mmHg 47%
20:00 +31°C° 10 mm 12 mps 731 mmHg 62%
21:00 +26°C° 10 mm 15 mps 731 mmHg 78%
22:00 +27°C° 1 mm 13 mps 731 mmHg 68%
23:00 +29°C° 1 mm 11 mps 732 mmHg 57%

5 July, Sunday

Time Temperature Precipitation Wind Pressure Humidity
00:00 +32°C° 1 mm 9 mps 732 mmHg 47%
01:00 +32°C° 0 mm 8 mps 731 mmHg 53%
02:00 +31°C° 0 mm 8 mps 731 mmHg 59%
03:00 +30°C° 0 mm 7 mps 731 mmHg 65%
04:00 +30°C° 0 mm 7 mps 731 mmHg 66%
05:00 +30°C° 0 mm 7 mps 731 mmHg 66%
06:00 +29°C° 0 mm 6 mps 732 mmHg 66%
07:00 +30°C° 0 mm 6 mps 732 mmHg 62%
08:00 +32°C° 0 mm 7 mps 733 mmHg 57%
09:00 +33°C° 0 mm 7 mps 734 mmHg 53%
10:00 +35°C° 0 mm 7 mps 734 mmHg 48%
11:00 +36°C° 0 mm 6 mps 733 mmHg 44%
12:00 +38°C° 0 mm 6 mps 733 mmHg 40%
13:00 +39°C° 0 mm 6 mps 732 mmHg 38%
14:00 +40°C° 0 mm 5 mps 732 mmHg 36%
15:00 +40°C° 0 mm 4 mps 731 mmHg 34%
16:00 +40°C° 0 mm 4 mps 731 mmHg 33%
17:00 +39°C° 0 mm 3 mps 731 mmHg 33%
18:00 +39°C° 0 mm 3 mps 731 mmHg 33%
19:00 +38°C° 0.1 mm 4 mps 731 mmHg 36%
20:00 +37°C° 0.1 mm 4 mps 732 mmHg 39%
21:00 +36°C° 0.1 mm 5 mps 732 mmHg 42%
22:00 +35°C° 0.3 mm 5 mps 733 mmHg 46%
23:00 +35°C° 0.3 mm 5 mps 733 mmHg 51%

6 July, Monday

Time Temperature Precipitation Wind Pressure Humidity
00:00 +34°C° 0.3 mm 6 mps 733 mmHg 55%
01:00 +33°C° 0.1 mm 5 mps 733 mmHg 58%
02:00 +32°C° 0.1 mm 5 mps 733 mmHg 60%
03:00 +32°C° 0.1 mm 5 mps 732 mmHg 63%
04:00 +30°C° 0 mm 5 mps 732 mmHg 63%
05:00 +30°C° 0 mm 5 mps 733 mmHg 63%
06:00 +30°C° 0 mm 5 mps 733 mmHg 64%
07:00 +32°C° 0 mm 5 mps 733 mmHg 59%
08:00 +33°C° 0 mm 6 mps 733 mmHg 55%
09:00 +34°C° 0 mm 6 mps 734 mmHg 51%
10:00 +35°C° 0 mm 6 mps 733 mmHg 47%
11:00 +38°C° 0 mm 6 mps 733 mmHg 42%
12:00 +39°C° 0 mm 5 mps 733 mmHg 38%
13:00 +40°C° 0 mm 5 mps 732 mmHg 36%
14:00 +40°C° 0 mm 4 mps 732 mmHg 33%
15:00 +40°C° 0 mm 3 mps 731 mmHg 31%
16:00 +40°C° 0 mm 3 mps 731 mmHg 30%
17:00 +40°C° 0 mm 3 mps 730 mmHg 30%
18:00 +40°C° 0 mm 3 mps 730 mmHg 29%
19:00 +37°C° 0.9 mm 4 mps 731 mmHg 38%
20:00 +35°C° 0.9 mm 6 mps 731 mmHg 47%
21:00 +33°C° 0.9 mm 7 mps 732 mmHg 55%
22:00 +32°C° 1.1 mm 7 mps 732 mmHg 55%
23:00 +32°C° 1.1 mm 6 mps 732 mmHg 55%

7 July, Tuesday

Time Temperature Precipitation Wind Pressure Humidity
00:00 +30°C° 1.1 mm 6 mps 732 mmHg 55%
01:00 +29°C° 0.7 mm 7 mps 732 mmHg 61%
02:00 +28°C° 0.7 mm 8 mps 732 mmHg 67%
03:00 +27°C° 0.7 mm 9 mps 732 mmHg 73%
04:00 +28°C° 0 mm 8 mps 732 mmHg 67%
05:00 +28°C° 0 mm 8 mps 732 mmHg 61%
06:00 +29°C° 0 mm 8 mps 732 mmHg 54%
07:00 +30°C° 0 mm 7 mps 732 mmHg 51%
08:00 +32°C° 0 mm 7 mps 733 mmHg 48%
09:00 +34°C° 0 mm 6 mps 733 mmHg 45%
10:00 +35°C° 0 mm 6 mps 733 mmHg 42%
11:00 +36°C° 0 mm 5 mps 733 mmHg 39%
12:00 +37°C° 0 mm 5 mps 733 mmHg 36%
13:00 +39°C° 0 mm 5 mps 732 mmHg 35%
14:00 +40°C° 0 mm 5 mps 731 mmHg 33%
15:00 +40°C° 0 mm 4 mps 731 mmHg 32%
16:00 +40°C° 0 mm 4 mps 731 mmHg 33%
17:00 +40°C° 0 mm 4 mps 731 mmHg 33%
18:00 +40°C° 0 mm 4 mps 730 mmHg 34%
19:00 +38°C° 0.1 mm 4 mps 731 mmHg 36%
20:00 +37°C° 0.1 mm 4 mps 731 mmHg 39%
21:00 +36°C° 0.1 mm 4 mps 731 mmHg 41%
22:00 +35°C° 0.1 mm 5 mps 731 mmHg 43%
23:00 +35°C° 0.1 mm 5 mps 731 mmHg 45%
Show more